Hourly Data Report for August 23, 2020

SVARTEVAEG
NUNAVUT
Current Station Operator: ECCC - MSC

81°09'39.000" N
91°48'59.060" W
72.00 m
2403833
71872
NSG

Download Data

Hourly Data (August 2020)
Hourly Data Report for August 23, 2020
TIME Temp Definition
°C
Dew Point Definition
°C
Rel Hum Definition
%
Wind Dir Definition
10's deg

Wind Spd Definition
km/h
Visibility Definition
km
Stn Press Definition
kPa
Hmdx Definition


Wind Chill Definition


Weather Definition


00:00 -0.4 -1.0 96 26 33   100.09   -7 LegendNANA
01:00 -0.3 -1.3 93 26 34   100.05   -7 LegendNANA
02:00 -0.2 -1.4 92 27 47   100.01   -8 LegendNANA
03:00 -0.3 -1.0 95 26 37   100.04   -8 LegendNANA
04:00 -0.4 -0.8 97 29 22   100.11   -6 LegendNANA
05:00 -0.4 -0.8 97 28 21   100.10   -6 LegendNANA
06:00 -0.6 -0.9 98 27 18   100.08   -6 LegendNANA
07:00 -0.5 -0.8 98 26 34   100.00   -8 LegendNANA
08:00 -0.3 -1.0 95 27 39   99.96   -8 LegendNANA
09:00 -0.2 -1.0 94 27 47   99.91   -8 LegendNANA
10:00 -0.5 -0.9 97 27 41   99.96   -8 LegendNANA
11:00 -0.6 -0.9 98 26 41   99.94   -8 LegendNANA
12:00 -0.6 -0.9 98 26 39   99.94   -8 LegendNANA
13:00 -0.5 -0.8 98 27 43   99.95   -8 LegendNANA
14:00 -0.5 -0.8 98 26 41   99.97   -8 LegendNANA
15:00 -0.5 -0.7 98 26 39   99.96   -8 LegendNANA
16:00 -0.5 -0.7 99 26 38   99.96   -8 LegendNANA
17:00 -0.5 -0.8 98 26 40   99.96   -8 LegendNANA
18:00 -0.5 -0.8 98 26 43   99.90   -8 LegendNANA
19:00 -0.4 -0.7 98 27 47   99.86   -8 LegendNANA
20:00 -0.1 -0.9 94 25 31   99.87   -7 LegendNANA
21:00 0.1 -0.7 94 21 17   99.81     LegendNANA
22:00 0.1 -0.1 98 18 22   99.70     LegendNANA
23:00 0.4 0.3 99 17 26   99.62     LegendNANA

Notes on Data Quality.

Legend

  • E = Estimated
  • M = Missing
  • NA = Not Available*
  • [empty] = Indicates an unobserved value
Date modified: